Regional Weather Roundup
Issued by NWS

Home | Current Version | Previous Version | Graphics & Text | Print | Product List | Glossary On
Versions: 1 2 3 4 5 6 7 8 9 10 11 12 13 14 15 16 17 18 19 20 21 22 23 24 25 26 27 28 29 30 31 32 33 34 35 36 37 38 39 40 41 42 43 44 45 46 47 48 49 50
000
ASUS43 KFSD 260510
RWRSD

WEATHER ROUNDUP FOR SOUTH DAKOTA
NATIONAL WEATHER SERVICE SIOUX FALLS SD
1200 AM CDT SUN MAR 26 2017

NOTE: "FAIR" INDICATES FEW OR NO CLOUDS BELOW 12,000 FEET WITH NO
SIGNIFICANT WEATHER AND/OR OBSTRUCTIONS TO VISIBILITY.


SDZ001>005-009-010-012>017-260600-
NORTHWEST AND NORTH CENTRAL SOUTH DAKOTA

CITY           SKY/WX    TMP DP  RH WIND       PRES   REMARKS
BUFFALO          N/A     48  32  53 NE10      29.81S
FAITH            N/A     43  35  73 MISG      29.86S
MOBRIDGE       CLOUDY    41  32  70 SE10      29.89F
$$

SDZ012>016-024>037-041>051-057-063-072>074-260600-
SOUTHWEST AND SOUTH CENTRAL SOUTH DAKOTA

CITY           SKY/WX    TMP DP  RH WIND       PRES   REMARKS
RAPID CTY ARPT CLOUDY    51  33  50 N15       29.80S
PIERRE         CLOUDY    39  34  82 SE14      29.90R
CUSTER         CLOUDY    44  31  60 NW3       29.84F
ELLSWORTH AFB  CLOUDY    51  31  48 N13       29.80S
PHILIP         CLOUDY    45  36  70 E12       29.84S
PINE RIDGE     CLOUDY    54  27  35 SW15G22   29.80S
SPEARFISH      FAIR      45  36  70 W6        29.86S
WINNER         CLOUDY    41  38  89 SE17G26   29.90R
$$

SDZ004>011-016>023-039-040-260600-
NORTHEAST SOUTH DAKOTA

CITY           SKY/WX    TMP DP  RH WIND       PRES   REMARKS
ABERDEEN       CLOUDY    36  33  89 SE6       29.99F FOG
WATERTOWN      FOG       35  35 100 SE6       29.97S VSB 1
BROOKINGS      CLOUDY    37  36  96 E9        29.96  FOG
SISSETON         N/A     36  35  96 S6        30.00S
$$

SDZ017-020-022-023-036>040-048>070-260600-
SOUTHEAST SOUTH DAKOTA

CITY           SKY/WX    TMP DP  RH WIND       PRES   REMARKS
SIOUX FALLS    CLOUDY    39  37  92 E8        29.96F
HURON          CLOUDY    40  38  93 SE12      29.96F
CHAMBERLAIN    CLOUDY    42  40  92 E13G18    29.92F
MITCHELL       CLOUDY    40  39  97 SE7       29.97F FOG
YANKTON        CLOUDY    37  36  93 E6        29.96F
$$

ABBREVIATIONS USED IN REMARKS
   TC - TEMPERATURE IN CELSIUS
  WCI - WIND CHILL INDEX
   HX - HEAT INDEX
  VSB - VISIBILITY





USA.gov is the U.S. government's official web portal to all federal, state and local government web resources and services.